| time (UTC) | temp F | wind direction | speed MPH | gust MPH | rain 1hr in | rain 24hr in | rain mn in | humidity % | barometer mb |
| 20260904115120 | 77 | 282 | 3.0 | 7.0 | 0.01 | 0.03 | 0.03 | 98 | 1009.4 |
| 20260904114120 | 76 | 309 | 3.0 | 7.0 | 0.01 | 0.03 | 0.03 | 99 | 1009.2 |
| 20260904113120 | 76 | 281 | 3.0 | 5.0 | 0.01 | 0.03 | 0.03 | 99 | 1009.0 |
| 20260904112144 | 75 | 325 | 2.0 | 3.0 | 0.00 | 0.02 | 0.02 | 99 | 1008.9 |
| 20260904111120 | 75 | 320 | 2.0 | 5.0 | 0.00 | 0.02 | 0.02 | 99 | 1008.8 |
| 20260904110143 | 74 | 316 | 2.0 | 4.0 | 0.00 | 0.02 | 0.02 | 99 | 1008.8 |
| 20260904105123 | 73 | 317 | 2.0 | 5.0 | 0.00 | 0.02 | 0.02 | 99 | 1008.8 |
| 20260904104141 | 73 | 319 | 2.0 | 4.0 | 0.00 | 0.02 | 0.02 | 99 | 1008.7 |
| 20260904103143 | 73 | 295 | 2.0 | 4.0 | 0.00 | 0.02 | 0.02 | 99 | 1008.6 |
| 20260904102124 | 73 | 293 | 2.0 | 4.0 | 0.00 | 0.02 | 0.02 | 99 | 1008.7 |
| 20260904101122 | 72 | 281 | 2.0 | 3.0 | 0.00 | 0.02 | 0.02 | 99 | 1008.5 |
| 20260904100122 | 72 | 345 | 0.0 | 1.0 | 0.00 | 0.02 | 0.02 | 99 | 1008.5 |
| 20260904095124 | 73 | 270 | 0.0 | 0.0 | 0.00 | 0.02 | 0.02 | 99 | 1008.5 |
| 20260904094121 | 73 | 203 | 0.0 | 0.0 | 0.00 | 0.02 | 0.02 | 99 | 1008.2 |
| 20260904093122 | 73 | 180 | 0.0 | 0.0 | 0.00 | 0.02 | 0.02 | 99 | 1008.2 |
| 20260904092126 | 73 | 11 | 0.0 | 1.0 | 0.00 | 0.02 | 0.02 | 99 | 1008.1 |
| 20260904091122 | 73 | 270 | 0.0 | 1.0 | 0.00 | 0.02 | 0.02 | 99 | 1008.2 |
| 20260904090122 | 73 | 238 | 0.0 | 2.0 | 0.00 | 0.02 | 0.02 | 99 | 1008.2 |
| 20260904085142 | 73 | 255 | 0.0 | 2.0 | 0.00 | 0.02 | 0.02 | 99 | 1008.2 |
| 20260904084121 | 74 | 307 | 1.0 | 3.0 | 0.00 | 0.02 | 0.02 | 99 | 1008.2 |
| 20260904083121 | 74 | 280 | 0.0 | 2.0 | 0.00 | 0.02 | 0.02 | 99 | 1008.4 |
| 20260904082145 | 74 | 322 | 1.0 | 2.0 | 0.00 | 0.02 | 0.02 | 99 | 1008.5 |
| 20260904081121 | 74 | 338 | 0.0 | 0.0 | 0.00 | 0.02 | 0.02 | 99 | 1008.6 |
| 20260904080142 | 75 | 268 | 0.0 | 2.0 | 0.02 | 0.03 | 0.02 | 99 | 1008.6 |
| 20260904075123 | 75 | 252 | 2.0 | 3.0 | 0.02 | 0.03 | 0.02 | 99 | 1008.2 |
| 20260904074123 | 75 | 328 | 0.0 | 1.0 | 0.02 | 0.03 | 0.02 | 99 | 1007.9 |
| 20260904073121 | 75 | 104 | 1.0 | 2.0 | 0.02 | 0.04 | 0.02 | 99 | 1007.8 |
| 20260904072143 | 76 | 310 | 2.0 | 3.0 | 0.02 | 0.04 | 0.02 | 99 | 1007.9 |
| 20260904071122 | 77 | 350 | 3.0 | 7.0 | 0.02 | 0.06 | 0.02 | 99 | 1008.2 |
| 20260904070124 | 78 | 323 | 3.0 | 9.0 | 0.00 | 0.05 | 0.00 | 96 | 1008.2 |
| 20260904065126 | 78 | 295 | 3.0 | 7.0 | 0.00 | 0.06 | 0.00 | 94 | 1008.6 |
| 20260904064123 | 78 | 326 | 2.0 | 4.0 | 0.00 | 0.07 | 0.00 | 96 | 1008.6 |
| 20260904063122 | 78 | 319 | 1.0 | 3.0 | 0.00 | 0.07 | 0.00 | 97 | 1008.4 |
| 20260904062143 | 78 | 11 | 0.0 | 1.0 | 0.00 | 0.07 | 0.00 | 98 | 1008.5 |
| 20260904061122 | 78 | 0 | 0.0 | 1.0 | 0.00 | 0.07 | 0.00 | 99 | 1008.5 |
| 20260904060122 | 78 | 290 | 0.0 | 2.0 | 0.00 | 0.08 | 0.00 | 99 | 1008.5 |
| 20260904055125 | 78 | 252 | 1.0 | 4.0 | 0.00 | 0.08 | 0.00 | 99 | 1008.7 |
| 20260904054146 | 77 | 255 | 0.0 | 2.0 | 0.00 | 0.09 | 0.00 | 99 | 1009.1 |
| 20260904053122 | 78 | 262 | 0.0 | 2.0 | 0.00 | 0.09 | 0.00 | 99 | 1009.2 |
| 20260904052121 | 78 | 233 | 1.0 | 2.0 | 0.00 | 0.11 | 0.00 | 99 | 1009.2 |
| 20260904051121 | 78 | 203 | 0.0 | 0.0 | 0.00 | 0.16 | 0.00 | 98 | 1009.2 |
| 20260904050122 | 78 | 184 | 0.0 | 2.0 | 0.00 | 0.17 | 0.00 | 98 | 1009.5 |
| 20260904045121 | 78 | 226 | 0.0 | 2.0 | 0.00 | 0.17 | 0.00 | 98 | 1009.5 |
| 20260904044121 | 78 | 249 | 1.0 | 3.0 | 0.00 | 0.18 | 0.00 | 97 | 1009.7 |
| 20260904043122 | 78 | 240 | 1.0 | 3.0 | 0.00 | 0.18 | 0.00 | 97 | 1009.9 |
| 20260904042126 | 78 | 205 | 1.0 | 5.0 | 0.00 | 0.18 | 0.00 | 97 | 1010.0 |
| 20260904041123 | 78 | 258 | 1.0 | 3.0 | 0.00 | 0.18 | 0.00 | 97 | 1010.0 |
| 20260904040123 | 78 | 254 | 2.0 | 4.0 | 0.00 | 0.18 | 0.00 | 97 | 1010.0 |
| 20260904035126 | 78 | 248 | 0.0 | 3.0 | 0.00 | 0.18 | 0.18 | 97 | 1010.0 |
| 20260904034122 | 78 | 196 | 1.0 | 2.0 | 0.00 | 0.18 | 0.18 | 96 | 1009.8 |
| 20260904033124 | 78 | 233 | 1.0 | 3.0 | 0.00 | 0.18 | 0.18 | 96 | 1009.7 |
| 20260904032127 | 78 | 169 | 0.0 | 1.0 | 0.00 | 0.18 | 0.18 | 96 | 1009.8 |
| 20260904031122 | 78 | 218 | 1.0 | 2.0 | 0.00 | 0.18 | 0.18 | 96 | 1009.9 |
| 20260904030124 | 78 | 202 | 1.0 | 3.0 | 0.00 | 0.18 | 0.18 | 95 | 1009.9 |
| 20260904025122 | 78 | 203 | 0.0 | 0.0 | 0.00 | 0.18 | 0.18 | 95 | 1010.1 |
| 20260904024143 | 78 | 225 | 0.0 | 0.0 | 0.00 | 0.18 | 0.18 | 95 | 1010.2 |
| 20260904023122 | 78 | 270 | 0.0 | 1.0 | 0.00 | 0.18 | 0.18 | 95 | 1010.5 |
| 20260904022123 | 78 | 264 | 1.0 | 3.0 | 0.00 | 0.18 | 0.18 | 97 | 1010.7 |
| 20260904021127 | 77 | 243 | 0.0 | 2.0 | 0.00 | 0.18 | 0.18 | 97 | 1010.8 |
| 20260904020142 | 77 | 248 | 0.0 | 0.0 | 0.00 | 0.18 | 0.18 | 98 | 1010.8 |
| 20260904015121 | 77 | 248 | 0.0 | 0.0 | 0.00 | 0.18 | 0.18 | 98 | 1010.8 |
| 20260904014144 | 77 | 270 | 0.0 | 0.0 | 0.00 | 0.18 | 0.18 | 98 | 1010.9 |
| 20260904013121 | 77 | 225 | 0.0 | 0.0 | 0.00 | 0.18 | 0.18 | 98 | 1010.7 |
| 20260904012126 | 77 | 113 | 0.0 | 0.0 | 0.00 | 0.18 | 0.18 | 97 | 1010.8 |
| 20260904011127 | 77 | 315 | 0.0 | 0.0 | 0.00 | 0.18 | 0.18 | 97 | 1010.5 |
| 20260904010121 | 78 | 90 | 0.0 | 1.0 | 0.00 | 0.18 | 0.18 | 97 | 1010.5 |
| 20260904005122 | 78 | 203 | 0.0 | 0.0 | 0.00 | 0.18 | 0.18 | 97 | 1010.7 |
| 20260904004121 | 78 | 225 | 0.0 | 0.0 | 0.00 | 0.18 | 0.18 | 96 | 1010.8 |
| 20260904003148 | 78 | 158 | 0.0 | 0.0 | 0.00 | 0.18 | 0.18 | 95 | 1010.6 |
| 20260904002121 | 78 | 202 | 0.0 | 2.0 | 0.00 | 0.18 | 0.18 | 94 | 1010.5 |
| 20260904001121 | 78 | 169 | 0.0 | 2.0 | 0.00 | 0.18 | 0.18 | 94 | 1010.2 |
| 20260904000143 | 79 | 220 | 1.0 | 2.0 | 0.00 | 0.18 | 0.18 | 91 | 1010.2 |
| 20260903235142 | 79 | 208 | 1.0 | 2.0 | 0.00 | 0.18 | 0.18 | 91 | 1010.2 |
| 20260903234123 | 80 | 194 | 0.0 | 2.0 | 0.00 | 0.18 | 0.18 | 90 | 1010.1 |
| 20260903233122 | 80 | 88 | 0.0 | 2.0 | 0.00 | 0.18 | 0.18 | 89 | 1010.0 |
| 20260903232124 | 81 | 135 | 0.0 | 2.0 | 0.00 | 0.18 | 0.18 | 87 | 1010.0 |
| 20260903231121 | 82 | 151 | 1.0 | 2.0 | 0.00 | 0.18 | 0.18 | 86 | 1010.2 |
| 20260903230122 | 82 | 165 | 1.0 | 3.0 | 0.00 | 0.18 | 0.18 | 86 | 1010.2 |
| 20260903225122 | 82 | 179 | 2.0 | 3.0 | 0.00 | 0.18 | 0.18 | 84 | 1010.2 |
| 20260903224122 | 83 | 157 | 1.0 | 3.0 | 0.00 | 0.18 | 0.18 | 83 | 1010.2 |
| 20260903223143 | 84 | 208 | 2.0 | 4.0 | 0.00 | 0.18 | 0.18 | 81 | 1010.4 |
| 20260903222122 | 85 | 288 | 1.0 | 3.0 | 0.00 | 0.18 | 0.18 | 79 | 1010.2 |
| 20260903221124 | 85 | 182 | 2.0 | 3.0 | 0.00 | 0.18 | 0.18 | 78 | 1010.1 |
| 20260903220142 | 86 | 178 | 2.0 | 4.0 | 0.00 | 0.18 | 0.18 | 76 | 1010.2 |
| 20260903215121 | 87 | 206 | 2.0 | 3.0 | 0.00 | 0.18 | 0.18 | 74 | 1010.2 |
| 20260903214125 | 87 | 112 | 2.0 | 4.0 | 0.00 | 0.18 | 0.18 | 74 | 1010.1 |
| 20260903213123 | 89 | 292 | 1.0 | 3.0 | 0.00 | 0.18 | 0.18 | 68 | 1010.0 |
| 20260903212121 | 89 | 280 | 1.0 | 2.0 | 0.00 | 0.18 | 0.18 | 68 | 1010.0 |
| 20260903211145 | 88 | 288 | 1.0 | 2.0 | 0.00 | 0.18 | 0.18 | 69 | 1010.0 |
| 20260903210121 | 89 | 250 | 2.0 | 4.0 | 0.00 | 0.18 | 0.18 | 67 | 1010.0 |
| 20260903205210 | 89 | 253 | 2.0 | 3.0 | 0.00 | 0.18 | 0.18 | 68 | 1010.2 |
| 20260903205142 | 89 | 248 | 2.0 | 3.0 | 0.00 | 0.18 | 0.18 | 68 | 1010.2 |
| 20260903204121 | 90 | 318 | 2.0 | 4.0 | 0.00 | 0.18 | 0.18 | 66 | 1010.1 |
| 20260903203121 | 91 | 272 | 2.0 | 3.0 | 0.00 | 0.18 | 0.18 | 64 | 1010.0 |
| 20260903202122 | 91 | 265 | 3.0 | 5.0 | 0.00 | 0.18 | 0.18 | 66 | 1010.0 |
| 20260903201146 | 91 | 316 | 2.0 | 4.0 | 0.00 | 0.18 | 0.18 | 65 | 1010.2 |
| 20260903200126 | 91 | 320 | 3.0 | 5.0 | 0.00 | 0.18 | 0.18 | 65 | 1010.2 |
| 20260903195124 | 91 | 284 | 2.0 | 4.0 | 0.00 | 0.18 | 0.18 | 65 | 1010.2 |
| 20260903194123 | 91 | 243 | 3.0 | 8.0 | 0.00 | 0.36 | 0.18 | 65 | 1010.2 |
| 20260903193124 | 90 | 285 | 3.0 | 6.0 | 0.00 | 0.41 | 0.18 | 66 | 1010.4 |
| 20260903192122 | 91 | 260 | 3.0 | 5.0 | 0.00 | 0.42 | 0.18 | 66 | 1010.6 |
| 20260903191125 | 90 | 260 | 3.0 | 6.0 | 0.00 | 0.42 | 0.18 | 65 | 1010.9 |
| 20260903190143 | 89 | 264 | 3.0 | 7.0 | 0.00 | 0.42 | 0.18 | 66 | 1010.9 |
| 20260903185143 | 90 | 347 | 3.0 | 7.0 | 0.00 | 0.42 | 0.18 | 65 | 1010.9 |
| 20260903184146 | 91 | 334 | 3.0 | 7.0 | 0.00 | 0.42 | 0.18 | 64 | 1011.0 |
| 20260903183122 | 89 | 279 | 4.0 | 9.0 | 0.00 | 0.42 | 0.18 | 66 | 1011.0 |
| 20260903182143 | 89 | 30 | 3.0 | 7.0 | 0.00 | 0.42 | 0.18 | 66 | 1011.2 |
| 20260903181148 | 89 | 279 | 4.0 | 7.0 | 0.00 | 0.42 | 0.18 | 67 | 1011.4 |
| 20260903180123 | 89 | 263 | 4.0 | 8.0 | 0.00 | 0.42 | 0.18 | 67 | 1011.4 |
| 20260903175142 | 89 | 309 | 4.0 | 9.0 | 0.00 | 0.42 | 0.18 | 67 | 1011.4 |
| 20260903174145 | 88 | 315 | 3.0 | 6.0 | 0.00 | 0.42 | 0.18 | 70 | 1011.6 |
| 20260903173121 | 87 | 315 | 4.0 | 7.0 | 0.00 | 0.42 | 0.18 | 70 | 1011.8 |
| 20260903172142 | 87 | 274 | 4.0 | 8.0 | 0.00 | 0.42 | 0.18 | 71 | 1012.0 |
| 20260903171121 | 87 | 277 | 3.0 | 7.0 | 0.00 | 0.42 | 0.18 | 71 | 1012.2 |
| 20260903170145 | 85 | 274 | 3.0 | 8.0 | 0.00 | 0.42 | 0.18 | 75 | 1012.2 |
| 20260903165121 | 85 | 266 | 3.0 | 9.0 | 0.00 | 0.42 | 0.18 | 75 | 1012.2 |
| 20260903164122 | 85 | 263 | 3.0 | 5.0 | 0.00 | 0.42 | 0.18 | 74 | 1012.2 |
| 20260903163122 | 86 | 252 | 3.0 | 5.0 | 0.00 | 0.42 | 0.18 | 73 | 1012.2 |
| 20260903162121 | 84 | 257 | 3.0 | 7.0 | 0.00 | 0.42 | 0.18 | 76 | 1012.2 |
| 20260903161123 | 84 | 257 | 3.0 | 8.0 | 0.00 | 0.42 | 0.18 | 78 | 1012.8 |
| 20260903160121 | 82 | 229 | 3.0 | 8.0 | 0.00 | 0.42 | 0.18 | 81 | 1012.8 |
| 20260903155142 | 82 | 252 | 5.0 | 10.0 | 0.00 | 0.42 | 0.18 | 79 | 1012.9 |
| 20260903154121 | 82 | 291 | 3.0 | 5.0 | 0.00 | 0.42 | 0.18 | 82 | 1012.7 |
| 20260903153123 | 81 | 257 | 3.0 | 9.0 | 0.00 | 0.42 | 0.18 | 83 | 1012.8 |
| 20260903152122 | 81 | 264 | 4.0 | 6.0 | 0.00 | 0.42 | 0.18 | 84 | 1012.8 |
| 20260903151143 | 81 | 251 | 4.0 | 8.0 | 0.00 | 0.42 | 0.18 | 83 | 1012.9 |
| 20260903150123 | 81 | 283 | 3.0 | 7.0 | 0.00 | 0.42 | 0.18 | 86 | 1012.9 |
| 20260903145121 | 79 | 313 | 3.0 | 7.0 | 0.00 | 0.42 | 0.18 | 89 | 1012.8 |
| 20260903144122 | 79 | 219 | 3.0 | 6.0 | 0.00 | 0.42 | 0.18 | 90 | 1012.7 |
| 20260903143124 | 78 | 256 | 4.0 | 9.0 | 0.00 | 0.42 | 0.18 | 90 | 1012.9 |
| 20260903142123 | 78 | 261 | 4.0 | 8.0 | 0.00 | 0.42 | 0.18 | 91 | 1012.7 |
| 20260903141122 | 78 | 237 | 4.0 | 9.0 | 0.00 | 0.42 | 0.18 | 92 | 1013.1 |
| 20260903140121 | 77 | 259 | 4.0 | 9.0 | 0.00 | 0.42 | 0.18 | 95 | 1013.1 |
| 20260903135121 | 75 | 252 | 3.0 | 5.0 | 0.00 | 0.42 | 0.18 | 99 | 1013.2 |
| 20260903134121 | 74 | 260 | 4.0 | 9.0 | 0.00 | 0.42 | 0.18 | 99 | 1013.4 |
| 20260903133126 | 73 | 254 | 3.0 | 6.0 | 0.00 | 0.42 | 0.18 | 99 | 1013.2 |
| 20260903132122 | 73 | 229 | 2.0 | 4.0 | 0.00 | 0.42 | 0.18 | 99 | 1013.5 |
| 20260903131122 | 71 | 245 | 3.0 | 5.0 | 0.00 | 0.42 | 0.18 | 99 | 1013.5 |
| 20260903130121 | 71 | 243 | 2.0 | 4.0 | 0.00 | 0.42 | 0.18 | 99 | 1013.5 |
| 20260903125124 | 71 | 246 | 2.0 | 4.0 | 0.00 | 0.42 | 0.18 | 99 | 1013.6 |
| 20260903124121 | 71 | 189 | 1.0 | 3.0 | 0.00 | 0.42 | 0.18 | 99 | 1013.6 |
| 20260903123122 | 71 | 202 | 1.0 | 3.0 | 0.00 | 0.42 | 0.18 | 99 | 1013.5 |
| 20260903122125 | 71 | 201 | 1.0 | 3.0 | 0.00 | 0.42 | 0.18 | 99 | 1014.0 |
| 20260903121142 | 71 | 241 | 1.0 | 3.0 | 0.00 | 0.42 | 0.18 | 99 | 1013.9 |
| 20260903120123 | 71 | 263 | 0.0 | 2.0 | 0.00 | 0.42 | 0.18 | 99 | 1013.9 |